Snowfall_Accumulation
0.0 0.0 0.0 0.0 0.0 0.0 0.0 0.0 0.0 0.0 0.0 0.0 0.0 0.0 0.0 0.0 0.0 0.0 0.0 0.0 0.0 0.0 0.0 0.0 0.0 0.0 0.0 0.0 0.0 0.0 0.0 0.0 0.0 0.0 0.0 0.0 0.0 0.0 0.0 0.0 0.0 0.0 0.0 0.0 0.0
0.0 0.0 0.0 0.0 0.0 0.0 0.0 0.0 0.0 0.0 0.0 0.0 0.0 0.0 0.0 0.0 0.0 0.0 0.0 0.0 0.0 0.0 0.0 0.0 0.0 0.0 0.0 0.0 0.0 0.0 0.0 0.0 0.0 0.0 0.0 0.0 0.0 0.0 0.0 0.0 0.0 0.0 0.0 0.0 0.0
0.0 0.0 0.0 0.0 0.0 0.0 0.0 0.0 0.0 0.0 0.0 0.0 0.0 0.0 0.0 0.0 0.0 0.0 0.0 0.0 0.0 0.0 0.0 0.0 0.0 0.0 0.0 0.0 0.0 0.0 0.0 0.0 0.0 0.0 0.0 0.0 0.0 0.0 0.0 0.0 0.0 0.0 0.0 0.0 0.0
0.0 0.0 0.0 0.0 0.0 0.0 0.0 0.0 0.0 0.0 0.0 0.0 0.0 0.0 0.0 0.0 0.5 0.0 0.0 0.0 0.0 0.0 0.0 0.0 0.0 0.0 0.0 0.0 0.0 0.0 0.0 0.0 0.0 0.0 0.0 0.0 0.0 0.0 0.0 0.0 0.0 0.0 0.0 0.0 0.0
0.0 0.0 0.0 0.0 0.0 0.0 0.0 0.0 0.0 0.0 0.0 0.0 0.0 0.0 0.0 0.0 0.0 0.0 0.0 0.0 0.0 0.0 0.0 0.0 0.0 0.0 0.0 0.0 0.0 0.0 0.0 0.0 0.0 0.0 0.0 0.0 0.0 0.0 0.0 0.0 0.0 0.0 0.0 0.0 0.0
0.0 0.0 0.0 0.0 0.0 0.0 0.0 0.0 0.0 0.0 0.0 0.0 0.0 0.0 0.0 0.0 0.0 0.0 0.0 0.0 0.0 0.0 0.0 0.0 0.0 0.0 0.0 0.0 0.0 0.0 0.0 0.0 0.0 0.0 0.0 0.0 0.0 0.0 0.0 0.0 0.0 0.0 0.0 0.0 0.0
0.0 0.0 0.0 0.0 0.0 0.0 0.0 0.0 0.0 0.0 0.0 0.0 0.0 0.0 0.0 0.0 0.0 0.0 0.0 0.0 0.0 0.0 0.0 0.0 0.0 0.0 0.0 0.0 0.0 0.0 0.0 0.0 0.0 0.0 0.0 0.0 0.0 0.0 0.0 0.0 0.0 0.0 0.0 0.0 0.0
0.0 0.0 0.0 0.0 0.0 0.0 0.0 0.0 0.0 0.0 0.0 0.0 0.0 0.0 0.0 0.0 0.0 0.0 0.0 0.0 0.0 0.0 0.0 0.0 0.0 0.0 0.0 0.0 0.0 0.6 0.0 0.4 0.0 0.0 0.0 0.0 0.0 0.0 0.0 0.0 0.0 0.0 0.0 0.0 0.0
0.0 0.0 0.0 0.0 0.0 0.0 0.0 0.0 0.0 0.0 0.0 0.0 0.0 0.0 0.0 0.0 0.0 0.0 0.0 0.0 0.0 0.0 0.0 0.0 0.0 0.0 0.0 1.6 1.6 1.4 1.4 0.1 0.0 0.0 0.0 0.0 0.0 0.0 0.0 0.0 0.0 0.0 0.0 0.0 0.0
0.0 0.0 0.0 0.0 0.0 0.0 0.0 0.0 0.0 0.0 0.0 0.0 0.0 0.0 0.0 0.0 0.0 0.0 0.0 0.0 0.0 0.0 0.0 0.0 0.0 4.2 3.9 4.4 1.1 1.5 0.8 0.7 0.5 0.0 0.0 0.0 0.0 0.0 0.0 0.0 0.0 0.0 0.0 0.0 0.0
0.0 0.0 0.0 0.0 0.0 0.0 0.0 0.0 0.0 0.0 0.0 0.0 0.0 0.0 0.0 0.0 0.0 0.0 0.0 0.0 0.0 0.0 0.6 0.0 14.8 9.3 1.4 0.3 0.7 1.0 0.7 0.7 0.2 0.0 0.0 0.0 0.0 0.0 0.0 0.0 0.0 1.2 0.0 0.0 0.0
0.0 0.0 0.0 0.0 0.0 0.0 0.0 0.0 0.0 0.0 0.0 0.0 0.0 0.0 0.0 0.0 0.0 0.0 0.0 0.0 0.0 6.0 1.4 1.8 10.6 0.2 0.0 0.0 0.8 3.4 0.8 1.3 0.0 0.0 0.0 0.0 0.0 0.0 0.0 0.0 0.0 7.3 0.0 0.0 0.0
0.0 0.0 0.0 0.0 0.0 0.0 0.0 0.0 0.0 0.0 0.0 0.0 0.0 0.0 0.0 0.0 0.0 0.0 0.0 0.0 0.0 8.9 6.9 3.5 1.9 0.0 0.7 1.1 1.2 1.0 0.0 1.0 2.3 0.4 0.0 0.0 0.4 0.0 0.0 0.0 0.0 0.0 0.0 0.0 1.7
0.0 0.0 0.0 0.0 0.0 0.0 0.0 0.0 0.0 0.0 19.6 4.3 0.7 0.0 0.0 0.0 0.0 0.0 0.0 0.0 3.0 7.9 2.7 3.2 0.0 0.8 5.8 0.2 0.3 0.0 0.0 1.6 1.6 1.6 2.8 0.0 1.8 0.0 0.0 0.0 0.0 0.0 0.0 0.0 0.0
0.0 0.0 0.0 0.0 0.0 0.0 0.0 0.0 0.0 0.0 17.9 1.9 0.0 0.0 0.0 0.0 0.0 0.0 0.0 0.0 4.9 5.2 6.4 13.3 0.4 3.1 4.1 0.0 0.0 0.0 0.0 0.0 1.7 2.5 2.4 0.1 4.4 0.0 0.0 0.0 0.0 0.0 0.0 0.0 0.1
0.0 0.0 0.0 0.0 0.0 0.0 0.0 0.0 0.0 21.3 15.9 14.3 0.0 0.0 0.0 0.0 0.0 0.0 0.0 0.0 0.0 5.1 0.0 2.7 0.0 0.0 0.0 0.0 0.0 0.0 0.0 0.0 4.1 5.9 11.6 0.1 5.6 4.8 2.8 2.2 0.9 0.0 0.0 0.0 0.0
0.0 0.0 0.0 0.0 0.0 0.0 0.0 0.0 22.2 12.1 5.2 12.3 15.6 0.0 0.3 1.8 0.3 0.0 0.0 3.0 0.0 16.3 19.0 7.5 0.0 0.0 0.0 0.0 0.0 3.9 10.6 16.9 15.7 14.8 8.1 4.7 7.0 5.6 4.9 0.9 2.0 0.0 0.0 0.0 0.0
0.0 0.0 0.0 0.0 0.0 0.0 0.0 10.7 13.7 6.3 9.3 0.0 2.2 0.6 5.2 0.0 0.5 0.0 0.0 2.7 0.0 4.9 10.7 13.3 17.4 0.0 0.0 0.0 6.4 5.3 5.0 11.9 6.3 3.0 2.0 1.4 4.5 7.5 0.1 0.0 0.0 0.0 0.0 0.0 0.0
0.0 0.0 0.0 0.0 0.0 0.0 0.0 12.4 11.9 7.7 5.3 5.7 0.0 4.0 6.2 0.1 0.0 0.2 0.4 0.8 0.0 0.0 6.6 4.3 5.2 0.0 0.0 0.0 0.0 1.4 9.1 0.9 4.5 1.4 3.5 3.2 3.6 0.1 0.0 0.0 0.0 0.0 0.0 0.0 0.0
0.0 0.0 0.0 0.0 0.0 0.0 9.1 9.8 8.9 5.3 0.0 0.0 2.9 0.4 0.8 0.3 0.3 0.8 0.4 0.0 0.9 0.0 0.0 0.0 3.4 0.0 0.0 0.0 0.0 0.4 0.0 1.1 10.9 5.6 2.4 2.0 2.9 8.2 8.0 6.0 3.7 2.3 0.0 0.0 0.0
0.0 0.0 0.0 0.0 0.0 0.0 14.3 6.2 4.7 0.0 0.0 0.0 0.3 0.5 0.0 0.0 0.0 0.0 0.0 0.0 0.0 0.0 0.0 0.0 6.0 2.4 0.0 2.0 1.0 0.6 1.8 1.7 1.1 2.6 1.8 1.2 5.2 6.1 10.6 3.6 4.3 0.1 0.2 0.2 0.2
0.0 14.7 0.0 0.0 1.5 3.4 4.7 1.8 0.0 0.0 0.0 0.0 0.0 0.0 0.0 0.0 0.0 0.0 0.0 0.0 0.0 0.0 0.2 0.0 3.4 7.5 2.0 0.0 0.0 0.0 0.3 0.7 8.8 3.5 2.0 2.4 3.9 0.1 0.1 0.0 0.1 0.2 0.2 0.2 0.1
0.0 0.0 0.0 0.0 9.8 4.7 0.0 0.0 0.0 0.0 0.0 0.0 0.0 0.0 0.0 0.0 0.0 0.0 0.0 0.0 0.0 0.0 0.2 1.0 8.0 8.5 7.0 0.0 0.0 3.7 1.9 2.8 4.9 8.3 9.5 8.2 2.7 0.4 0.2 0.2 0.1 0.2 0.2 0.3 0.8
0.0 10.1 0.0 0.0 0.0 0.0 1.4 3.5 1.5 0.0 0.0 0.0 0.0 0.4 0.5 0.2 0.0 1.3 0.0 0.0 0.0 0.0 0.0 0.0 6.3 9.7 9.4 8.0 6.8 7.1 3.2 4.5 11.8 24.8 7.3 5.1 2.7 1.4 1.3 1.0 0.7 0.7 1.6 2.7 2.7
0.0 1.6 0.0 6.2 1.9 0.0 0.0 0.0 0.0 1.2 0.0 0.0 0.0 1.0 1.4 1.5 0.3 0.1 0.4 0.1 0.0 0.0 0.0 0.0 14.8 10.8 5.9 2.8 8.3 6.3 3.3 2.5 9.6 7.8 17.3 7.8 3.8 4.7 4.9 4.1 3.8 3.6 3.3 3.2 3.8
0.0 0.0 0.0 0.0 0.0 0.0 0.0 0.0 0.0 0.0 0.0 0.0 0.0 0.0 0.0 1.1 1.1 1.9 1.4 0.4 0.3 0.0 0.0 0.0 14.7 9.4 6.4 1.0 2.9 4.2 2.8 1.7 1.6 2.7 4.2 4.8 5.4 6.3 4.7 2.9 3.3 3.4 3.5 3.8 4.4
0.0 0.0 0.0 0.0 0.0 0.0 0.0 0.2 0.0 0.6 0.0 0.4 0.6 0.0 0.0 0.0 0.0 0.0 0.0 0.0 0.0 0.0 0.0 1.3 9.3 14.7 11.7 1.6 0.1 5.0 1.9 0.9 0.9 1.1 1.4 4.9 2.9 2.2 2.0 2.7 3.5 3.8 4.4 4.7 4.7